Location: Newark
(39.6867°N, 100.6772°W)
Time: 03:24:49
(UTC+00:00)

Vanguard 1 Rocket - Pass Details

Date: 24 October 2019
Orbit: 651 x 4226 km, 34.3° (Epoch: 19 November)

Event Time Altitude Azimuth Distance (km) Brightness Sun altitude
Rises 17:35:35 0° 256° (WSW) 5,196 11.3 37.1°
Reaches altitude 10° 17:38:18 10° 254° (WSW) 4,546 11.1 37.3°
Maximum altitude 17:52:17 74° 173° (S) 3,260 11.3 37.9°
Drops below altitude 10° 18:17:04 10° 95° (E) 7,402 12.2 38.4°
Sets 18:23:06 0° 94° (E) 8,468 12.4 38.5°
